Time,TemperatureF,DewpointF,PressureIn,WindDirection,WindDirectionDegrees,WindSpeedMPH,WindSpeedGustMPH,Humidity,HourlyPrecipIn,Conditions,Clouds,dailyrainin,SolarRadiationWatts/m^2,SoftwareType,DateUTC
2013-10-15 00:02:00,31.1,28.0,30.34,NW,311,0.0,0.0,88,0.00,,,0.00,0,Wunderground v.1.15,2013-10-15 06:02:00,
2013-10-15 00:08:00,31.1,28.0,30.34,NW,311,0.0,0.0,88,0.00,,,0.00,0,Wunderground v.1.15,2013-10-15 06:08:00,
2013-10-15 00:13:00,31.0,27.9,30.34,NW,311,0.0,0.0,88,0.00,,,0.00,0,Wunderground v.1.15,2013-10-15 06:13:00,
2013-10-15 00:18:00,31.0,27.9,30.34,NW,311,0.0,0.0,88,0.00,,,0.00,0,Wunderground v.1.15,2013-10-15 06:18:00,
2013-10-15 00:23:00,31.0,27.9,30.34,NW,311,0.0,2.0,88,0.00,,,0.00,0,Wunderground v.1.15,2013-10-15 06:23:00,
2013-10-15 00:29:00,31.0,27.9,30.34,NW,311,0.0,2.0,88,0.00,,,0.00,0,Wunderground v.1.15,2013-10-15 06:29:00,
2013-10-15 00:34:00,31.0,27.9,30.33,NW,311,0.0,0.0,88,0.00,,,0.00,0,Wunderground v.1.15,2013-10-15 06:34:00,
2013-10-15 00:40:00,30.9,27.8,30.33,NW,311,0.0,1.0,88,0.00,,,0.00,0,Wunderground v.1.15,2013-10-15 06:40:00,
2013-10-15 00:45:00,30.9,27.8,30.33,NW,311,0.0,1.0,88,0.00,,,0.00,0,Wunderground v.1.15,2013-10-15 06:45:00,
2013-10-15 00:50:00,30.9,27.8,30.33,NW,311,0.0,0.0,88,0.00,,,0.00,0,Wunderground v.1.15,2013-10-15 06:50:00,
2013-10-15 00:56:00,30.9,27.8,30.33,NW,311,0.0,0.0,88,0.00,,,0.00,0,Wunderground v.1.15,2013-10-15 06:56:00,
2013-10-15 01:01:00,30.9,27.8,30.33,NW,311,0.0,0.0,88,0.00,,,0.00,0,Wunderground v.1.15,2013-10-15 07:01:00,
2013-10-15 01:06:00,30.8,27.7,30.33,NW,311,0.0,0.0,88,0.00,,,0.00,0,Wunderground v.1.15,2013-10-15 07:06:00,
2013-10-15 01:12:00,30.8,27.7,30.33,NW,311,0.0,0.0,88,0.00,,,0.00,0,Wunderground v.1.15,2013-10-15 07:12:00,
2013-10-15 01:18:00,30.8,27.7,30.33,NW,311,0.0,0.0,88,0.00,,,0.00,0,Wunderground v.1.15,2013-10-15 07:18:00,
2013-10-15 01:24:00,30.8,27.7,30.33,NW,311,0.0,0.0,88,0.00,,,0.00,0,Wunderground v.1.15,2013-10-15 07:24:00,
2013-10-15 01:29:00,30.8,27.7,30.33,NW,311,0.0,0.0,88,0.00,,,0.00,0,Wunderground v.1.15,2013-10-15 07:29:00,
2013-10-15 01:34:00,30.8,27.7,30.33,NW,311,0.0,0.0,88,0.00,,,0.00,0,Wunderground v.1.15,2013-10-15 07:34:00,
2013-10-15 01:40:00,30.8,27.7,30.33,NW,311,0.0,0.0,88,0.00,,,0.00,0,Wunderground v.1.15,2013-10-15 07:40:00,
2013-10-15 01:45:00,30.8,27.7,30.33,NW,311,0.0,0.0,88,0.00,,,0.00,0,Wunderground v.1.15,2013-10-15 07:45:00,
2013-10-15 01:51:00,30.8,27.7,30.33,NW,311,0.0,0.0,88,0.00,,,0.00,0,Wunderground v.1.15,2013-10-15 07:51:00,
2013-10-15 01:56:00,30.8,27.7,30.33,NW,311,0.0,0.0,88,0.00,,,0.00,0,Wunderground v.1.15,2013-10-15 07:56:00,
2013-10-15 02:02:00,30.8,27.7,30.33,NW,311,0.0,0.0,88,0.00,,,0.00,0,Wunderground v.1.15,2013-10-15 08:02:00,
2013-10-15 02:08:00,30.8,27.7,30.33,NW,311,0.0,0.0,88,0.00,,,0.00,0,Wunderground v.1.15,2013-10-15 08:08:00,
2013-10-15 02:13:00,30.8,27.7,30.32,NW,311,0.0,0.0,88,0.00,,,0.00,0,Wunderground v.1.15,2013-10-15 08:13:00,
2013-10-15 02:19:00,30.8,27.7,30.33,NW,311,0.0,0.0,88,0.00,,,0.00,0,Wunderground v.1.15,2013-10-15 08:19:00,
2013-10-15 02:25:00,30.8,27.7,30.33,NW,311,0.0,1.0,88,0.00,,,0.00,0,Wunderground v.1.15,2013-10-15 08:25:00,
2013-10-15 02:30:00,30.7,27.6,30.33,NW,311,1.0,1.0,88,0.00,,,0.00,0,Wunderground v.1.15,2013-10-15 08:30:00,
2013-10-15 02:35:00,30.7,27.3,30.33,NW,311,1.0,1.0,87,0.00,,,0.00,0,Wunderground v.1.15,2013-10-15 08:35:00,
2013-10-15 02:40:00,30.6,27.2,30.33,NW,311,0.0,0.0,87,0.00,,,0.00,0,Wunderground v.1.15,2013-10-15 08:40:00,
2013-10-15 02:45:00,30.6,27.2,30.33,NW,311,0.0,0.0,87,0.00,,,0.00,0,Wunderground v.1.15,2013-10-15 08:45:00,
2013-10-15 02:51:00,30.6,27.2,30.33,NW,311,0.0,0.0,87,0.00,,,0.00,0,Wunderground v.1.15,2013-10-15 08:51:00,
2013-10-15 02:52:00,30.6,27.2,30.33,NW,311,0.0,0.0,87,0.00,,,0.00,0,Wunderground v.1.15,2013-10-15 08:52:00,
2013-10-15 02:58:00,30.6,27.2,30.33,NW,311,0.0,0.0,87,0.00,,,0.00,0,Wunderground v.1.15,2013-10-15 08:58:00,
2013-10-15 03:03:00,30.5,27.1,30.33,NW,311,0.0,1.0,87,0.00,,,0.00,0,Wunderground v.1.15,2013-10-15 09:03:00,
2013-10-15 03:09:00,30.5,27.1,30.33,NW,311,0.0,2.0,87,0.00,,,0.00,0,Wunderground v.1.15,2013-10-15 09:09:00,
2013-10-15 03:15:00,30.4,27.0,30.33,NW,311,1.0,2.0,87,0.00,,,0.00,0,Wunderground v.1.15,2013-10-15 09:15:00,
2013-10-15 03:21:00,30.3,26.9,30.32,NW,311,1.0,1.0,87,0.00,,,0.00,0,Wunderground v.1.15,2013-10-15 09:21:00,
2013-10-15 03:26:00,30.3,26.9,30.32,NW,311,0.0,2.0,87,0.00,,,0.00,0,Wunderground v.1.15,2013-10-15 09:26:00,
2013-10-15 03:31:00,30.3,26.9,30.32,NW,311,0.0,0.0,87,0.00,,,0.00,0,Wunderground v.1.15,2013-10-15 09:31:00,
2013-10-15 03:37:00,30.2,26.5,30.31,NW,311,0.0,0.0,86,0.00,,,0.00,0,Wunderground v.1.15,2013-10-15 09:37:00,
2013-10-15 03:42:00,30.2,26.5,30.31,NW,311,0.0,0.0,86,0.00,,,0.00,0,Wunderground v.1.15,2013-10-15 09:42:00,
2013-10-15 03:47:00,30.0,26.3,30.31,NW,311,0.0,0.0,86,0.00,,,0.00,0,Wunderground v.1.15,2013-10-15 09:47:00,
2013-10-15 03:52:00,29.8,25.8,30.31,NW,311,0.0,0.0,85,0.00,,,0.00,0,Wunderground v.1.15,2013-10-15 09:52:00,
2013-10-15 03:57:00,29.8,25.8,30.31,NW,311,0.0,0.0,85,0.00,,,0.00,0,Wunderground v.1.15,2013-10-15 09:57:00,
2013-10-15 04:03:00,29.6,25.6,30.30,NW,311,1.0,2.0,85,0.00,,,0.00,0,Wunderground v.1.15,2013-10-15 10:03:00,
2013-10-15 04:08:00,29.4,25.4,30.30,WNW,297,2.0,2.0,85,0.00,,,0.00,0,Wunderground v.1.15,2013-10-15 10:08:00,
2013-10-15 04:13:00,29.4,25.2,30.30,West,273,3.0,3.0,84,0.00,,,0.00,0,Wunderground v.1.15,2013-10-15 10:13:00,
2013-10-15 04:18:00,29.5,25.3,30.30,West,272,3.0,3.0,84,0.00,,,0.00,0,Wunderground v.1.15,2013-10-15 10:18:00,
2013-10-15 04:24:00,29.6,25.1,30.30,West,272,2.0,3.0,83,0.00,,,0.00,0,Wunderground v.1.15,2013-10-15 10:24:00,
2013-10-15 04:29:00,29.6,25.1,30.30,West,272,2.0,5.0,83,0.00,,,0.00,0,Wunderground v.1.15,2013-10-15 10:29:00,
2013-10-15 04:34:00,29.5,24.7,30.30,West,272,3.0,5.0,82,0.00,,,0.00,0,Wunderground v.1.15,2013-10-15 10:34:00,
2013-10-15 04:40:00,29.5,24.7,30.30,West,273,3.0,3.0,82,0.00,,,0.00,0,Wunderground v.1.15,2013-10-15 10:40:00,
2013-10-15 04:45:00,29.3,24.5,30.30,West,273,2.0,3.0,82,0.00,,,0.00,0,Wunderground v.1.15,2013-10-15 10:45:00,
2013-10-15 04:54:00,29.1,24.3,30.30,West,273,2.0,3.0,82,0.00,,,0.00,0,Wunderground v.1.15,2013-10-15 10:54:00,
2013-10-15 05:00:00,29.0,24.2,30.30,West,273,2.0,3.0,82,0.00,,,0.00,0,Wunderground v.1.15,2013-10-15 11:00:00,
2013-10-15 05:06:00,28.7,23.9,30.30,West,273,2.0,3.0,82,0.00,,,0.00,0,Wunderground v.1.15,2013-10-15 11:06:00,
2013-10-15 05:11:00,28.5,23.7,30.30,West,274,2.0,3.0,82,0.00,,,0.00,0,Wunderground v.1.15,2013-10-15 11:11:00,
2013-10-15 05:16:00,28.4,23.6,30.30,West,274,2.0,3.0,82,0.00,,,0.00,0,Wunderground v.1.15,2013-10-15 11:16:00,
2013-10-15 05:22:00,28.2,23.4,30.30,WNW,293,2.0,2.0,82,0.00,,,0.00,0,Wunderground v.1.15,2013-10-15 11:22:00,
2013-10-15 05:27:00,28.0,23.2,30.30,WNW,293,2.0,2.0,82,0.00,,,0.00,0,Wunderground v.1.15,2013-10-15 11:27:00,
2013-10-15 05:32:00,27.9,23.4,30.30,WNW,293,1.0,1.0,83,0.00,,,0.00,0,Wunderground v.1.15,2013-10-15 11:32:00,
2013-10-15 05:38:00,27.8,23.3,30.31,WNW,293,1.0,2.0,83,0.00,,,0.00,0,Wunderground v.1.15,2013-10-15 11:38:00,
2013-10-15 05:43:00,27.6,23.4,30.31,WNW,293,2.0,3.0,84,0.00,,,0.00,0,Wunderground v.1.15,2013-10-15 11:43:00,
2013-10-15 05:48:00,27.4,23.2,30.31,WNW,293,2.0,3.0,84,0.00,,,0.00,0,Wunderground v.1.15,2013-10-15 11:48:00,
2013-10-15 05:54:00,27.3,23.4,30.30,WNW,293,1.0,2.0,85,0.00,,,0.00,0,Wunderground v.1.15,2013-10-15 11:54:00,
2013-10-15 05:59:00,27.3,23.4,30.30,WNW,293,1.0,3.0,85,0.00,,,0.00,0,Wunderground v.1.15,2013-10-15 11:59:00,
2013-10-15 06:04:00,27.4,23.5,30.30,WNW,292,2.0,3.0,85,0.00,,,0.00,0,Wunderground v.1.15,2013-10-15 12:04:00,
2013-10-15 06:10:00,27.4,23.5,30.30,WNW,293,1.0,1.0,85,0.00,,,0.00,0,Wunderground v.1.15,2013-10-15 12:10:00,
2013-10-15 06:15:00,27.5,23.6,30.30,West,279,1.0,2.0,85,0.00,,,0.00,0,Wunderground v.1.15,2013-10-15 12:15:00,
2013-10-15 06:20:00,27.5,23.6,30.30,West,278,1.0,1.0,85,0.00,,,0.00,0,Wunderground v.1.15,2013-10-15 12:20:00,
2013-10-15 06:25:00,27.5,23.3,30.30,West,278,0.0,1.0,84,0.00,,,0.00,0,Wunderground v.1.15,2013-10-15 12:25:00,
2013-10-15 06:31:00,27.4,23.2,30.30,West,278,0.0,2.0,84,0.00,,,0.00,0,Wunderground v.1.15,2013-10-15 12:31:00,
2013-10-15 06:36:00,27.2,23.0,30.30,West,278,1.0,2.0,84,0.00,,,0.00,0,Wunderground v.1.15,2013-10-15 12:36:00,
2013-10-15 06:42:00,27.1,22.9,30.30,West,278,1.0,1.0,84,0.00,,,0.00,0,Wunderground v.1.15,2013-10-15 12:42:00,
2013-10-15 06:47:00,27.0,22.8,30.30,West,278,0.0,1.0,84,0.00,,,0.00,0,Wunderground v.1.15,2013-10-15 12:47:00,
2013-10-15 06:53:00,26.9,22.4,30.29,West,278,1.0,2.0,83,0.00,,,0.00,0,Wunderground v.1.15,2013-10-15 12:53:00,
2013-10-15 06:58:00,26.8,22.3,30.29,West,278,1.0,2.0,83,0.00,,,0.00,0,Wunderground v.1.15,2013-10-15 12:58:00,
2013-10-15 07:04:00,26.7,22.2,30.29,West,278,0.0,0.0,83,0.00,,,0.00,0,Wunderground v.1.15,2013-10-15 13:04:00,
2013-10-15 07:10:00,26.6,22.1,30.29,West,278,0.0,0.0,83,0.00,,,0.00,0,Wunderground v.1.15,2013-10-15 13:10:00,
2013-10-15 07:15:00,26.5,22.0,30.29,West,278,0.0,0.0,83,0.00,,,0.00,0,Wunderground v.1.15,2013-10-15 13:15:00,
2013-10-15 07:20:00,26.5,22.3,30.29,West,278,0.0,0.0,84,0.00,,,0.00,0,Wunderground v.1.15,2013-10-15 13:20:00,
2013-10-15 07:25:00,26.5,22.3,30.29,West,278,1.0,2.0,84,0.00,,,0.00,0,Wunderground v.1.15,2013-10-15 13:25:00,
2013-10-15 07:30:00,26.4,22.2,30.29,West,278,1.0,2.0,84,0.00,,,0.00,0,Wunderground v.1.15,2013-10-15 13:30:00,
2013-10-15 07:36:00,26.4,21.9,30.29,West,278,2.0,2.0,83,0.00,,,0.00,0,Wunderground v.1.15,2013-10-15 13:36:00,
2013-10-15 07:41:00,26.3,21.8,30.29,West,278,2.0,2.0,83,0.00,,,0.00,0,Wunderground v.1.15,2013-10-15 13:41:00,
2013-10-15 07:46:00,26.2,21.7,30.29,West,279,2.0,5.0,83,0.00,,,0.00,0,Wunderground v.1.15,2013-10-15 13:46:00,
2013-10-15 07:52:00,26.1,21.6,30.29,West,279,1.0,3.0,83,0.00,,,0.00,0,Wunderground v.1.15,2013-10-15 13:52:00,
2013-10-15 07:58:00,26.3,21.8,30.29,West,278,1.0,3.0,83,0.00,,,0.00,5,Wunderground v.1.15,2013-10-15 13:58:00,
2013-10-15 08:03:00,26.5,21.7,30.30,West,278,1.0,2.0,82,0.00,,,0.00,5,Wunderground v.1.15,2013-10-15 14:03:00,
2013-10-15 08:09:00,26.5,21.7,30.30,West,278,1.0,2.0,82,0.00,,,0.00,5,Wunderground v.1.15,2013-10-15 14:09:00,
2013-10-15 08:14:00,26.6,21.6,30.30,West,278,1.0,2.0,81,0.00,,,0.00,7,Wunderground v.1.15,2013-10-15 14:14:00,
2013-10-15 08:19:00,26.5,21.5,30.30,West,278,1.0,2.0,81,0.00,,,0.00,9,Wunderground v.1.15,2013-10-15 14:19:00,
2013-10-15 08:25:00,26.5,21.5,30.30,West,278,1.0,2.0,81,0.00,,,0.00,9,Wunderground v.1.15,2013-10-15 14:25:00,
2013-10-15 08:31:00,26.6,21.6,30.30,West,278,1.0,2.0,81,0.00,,,0.00,14,Wunderground v.1.15,2013-10-15 14:31:00,
2013-10-15 08:36:00,26.7,21.7,30.30,West,278,1.0,2.0,81,0.00,,,0.00,18,Wunderground v.1.15,2013-10-15 14:36:00,
2013-10-15 08:41:00,26.8,22.0,30.31,West,278,1.0,2.0,82,0.00,,,0.00,19,Wunderground v.1.15,2013-10-15 14:41:00,
2013-10-15 08:46:00,26.9,22.1,30.31,West,278,0.0,2.0,82,0.00,,,0.00,37,Wunderground v.1.15,2013-10-15 14:46:00,
2013-10-15 08:51:00,26.9,22.1,30.31,West,278,0.0,0.0,82,0.00,,,0.00,35,Wunderground v.1.15,2013-10-15 14:51:00,
2013-10-15 08:56:00,26.9,21.8,30.31,West,278,0.0,0.0,81,0.00,,,0.00,47,Wunderground v.1.15,2013-10-15 14:56:00,
2013-10-15 09:01:00,26.9,21.8,30.31,West,278,0.0,1.0,81,0.00,,,0.00,58,Wunderground v.1.15,2013-10-15 15:01:00,
2013-10-15 09:07:00,27.0,21.9,30.31,West,278,0.0,1.0,81,0.00,,,0.00,81,Wunderground v.1.15,2013-10-15 15:07:00,
2013-10-15 09:12:00,27.2,22.4,30.31,West,278,0.0,0.0,82,0.00,,,0.00,114,Wunderground v.1.15,2013-10-15 15:12:00,
2013-10-15 09:17:00,27.5,22.7,30.31,West,278,0.0,0.0,82,0.00,,,0.00,188,Wunderground v.1.15,2013-10-15 15:17:00,
2013-10-15 09:22:00,28.0,22.6,30.31,West,276,1.0,3.0,80,0.00,,,0.00,183,Wunderground v.1.15,2013-10-15 15:22:00,
2013-10-15 09:28:00,28.4,22.7,30.31,West,276,1.0,3.0,79,0.00,,,0.00,327,Wunderground v.1.15,2013-10-15 15:28:00,
2013-10-15 09:34:00,29.0,23.6,30.31,West,276,0.0,1.0,80,0.00,,,0.00,441,Wunderground v.1.15,2013-10-15 15:34:00,
2013-10-15 09:40:00,29.4,23.7,30.31,West,276,1.0,1.0,79,0.00,,,0.00,348,Wunderground v.1.15,2013-10-15 15:40:00,
2013-10-15 09:45:00,30.0,24.3,30.31,West,276,1.0,1.0,79,0.00,,,0.00,332,Wunderground v.1.15,2013-10-15 15:45:00,
2013-10-15 09:50:00,30.6,24.9,30.31,West,276,0.0,1.0,79,0.00,,,0.00,348,Wunderground v.1.15,2013-10-15 15:50:00,
2013-10-15 09:55:00,31.0,24.6,30.31,West,276,1.0,2.0,77,0.00,,,0.00,364,Wunderground v.1.15,2013-10-15 15:55:00,
2013-10-15 10:00:00,31.6,25.2,30.31,WSW,249,1.0,1.0,77,0.00,,,0.00,383,Wunderground v.1.15,2013-10-15 16:00:00,
2013-10-15 10:06:00,32.2,25.5,30.31,WSW,249,2.0,2.0,76,0.00,,,0.00,401,Wunderground v.1.15,2013-10-15 16:06:00,
2013-10-15 10:11:00,32.3,25.6,30.31,WSW,249,1.0,2.0,76,0.00,,,0.00,429,Wunderground v.1.15,2013-10-15 16:11:00,
2013-10-15 10:17:00,32.7,25.6,30.31,WSW,249,1.0,2.0,75,0.00,,,0.00,439,Wunderground v.1.15,2013-10-15 16:17:00,
2013-10-15 10:22:00,33.2,25.5,30.30,WSW,249,1.0,1.0,73,0.00,,,0.00,455,Wunderground v.1.15,2013-10-15 16:22:00,
2013-10-15 10:28:00,33.6,26.2,30.30,WSW,249,0.0,1.0,74,0.00,,,0.00,473,Wunderground v.1.15,2013-10-15 16:28:00,
2013-10-15 10:33:00,34.2,26.4,30.30,WSW,249,0.0,1.0,73,0.00,,,0.00,483,Wunderground v.1.15,2013-10-15 16:33:00,
2013-10-15 10:39:00,34.4,26.3,30.29,WSW,249,1.0,2.0,72,0.00,,,0.00,499,Wunderground v.1.15,2013-10-15 16:39:00,
2013-10-15 10:44:00,35.1,27.3,30.29,WSW,249,0.0,1.0,73,0.00,,,0.00,508,Wunderground v.1.15,2013-10-15 16:44:00,
2013-10-15 10:49:00,35.6,27.1,30.29,WSW,249,1.0,3.0,71,0.00,,,0.00,520,Wunderground v.1.15,2013-10-15 16:49:00,
2013-10-15 10:55:00,35.7,27.6,30.29,WSW,249,1.0,1.0,72,0.00,,,0.00,533,Wunderground v.1.15,2013-10-15 16:55:00,
2013-10-15 11:00:00,35.8,27.7,30.28,WSW,249,1.0,1.0,72,0.00,,,0.00,541,Wunderground v.1.15,2013-10-15 17:00:00,
2013-10-15 11:06:00,36.6,27.7,30.28,WSW,249,0.0,3.0,70,0.00,,,0.00,554,Wunderground v.1.15,2013-10-15 17:06:00,
2013-10-15 11:12:00,37.5,28.6,30.28,WSW,249,0.0,1.0,70,0.00,,,0.00,563,Wunderground v.1.15,2013-10-15 17:12:00,
2013-10-15 11:17:00,37.9,28.6,30.27,WSW,249,0.0,2.0,69,0.00,,,0.00,575,Wunderground v.1.15,2013-10-15 17:17:00,
2013-10-15 11:23:00,37.7,28.8,30.26,WSW,249,0.0,1.0,70,0.00,,,0.00,582,Wunderground v.1.15,2013-10-15 17:23:00,
2013-10-15 11:28:00,38.1,28.5,30.26,WSW,249,0.0,1.0,68,0.00,,,0.00,591,Wunderground v.1.15,2013-10-15 17:28:00,
2013-10-15 11:33:00,38.5,28.5,30.26,WSW,249,0.0,0.0,67,0.00,,,0.00,598,Wunderground v.1.15,2013-10-15 17:33:00,
2013-10-15 11:38:00,38.7,28.3,30.25,WSW,249,0.0,0.0,66,0.00,,,0.00,606,Wunderground v.1.15,2013-10-15 17:38:00,
2013-10-15 11:43:00,38.6,28.6,30.25,WSW,249,0.0,2.0,67,0.00,,,0.00,613,Wunderground v.1.15,2013-10-15 17:43:00,
2013-10-15 11:49:00,38.4,29.1,30.25,NW,310,1.0,2.0,69,0.00,,,0.00,621,Wunderground v.1.15,2013-10-15 17:49:00,
2013-10-15 11:55:00,38.4,28.8,30.25,NW,314,1.0,2.0,68,0.00,,,0.00,619,Wunderground v.1.15,2013-10-15 17:55:00,
2013-10-15 12:00:00,38.6,28.6,30.25,NW,314,1.0,1.0,67,0.00,,,0.00,622,Wunderground v.1.15,2013-10-15 18:00:00,
2013-10-15 12:06:00,39.1,28.7,30.24,NW,314,0.0,1.0,66,0.00,,,0.00,633,Wunderground v.1.15,2013-10-15 18:06:00,
2013-10-15 12:12:00,40.1,30.0,30.24,NW,314,0.0,0.0,67,0.00,,,0.00,649,Wunderground v.1.15,2013-10-15 18:12:00,
2013-10-15 12:17:00,41.1,30.2,30.24,NW,314,0.0,0.0,65,0.00,,,0.00,652,Wunderground v.1.15,2013-10-15 18:17:00,
2013-10-15 12:23:00,42.5,30.0,30.24,NW,314,0.0,1.0,61,0.00,,,0.00,656,Wunderground v.1.15,2013-10-15 18:23:00,
2013-10-15 12:28:00,43.5,30.1,30.25,NW,314,0.0,1.0,59,0.00,,,0.00,661,Wunderground v.1.15,2013-10-15 18:28:00,
2013-10-15 12:33:00,43.9,29.6,30.25,NW,314,0.0,2.0,57,0.00,,,0.00,661,Wunderground v.1.15,2013-10-15 18:33:00,
2013-10-15 12:38:00,43.3,29.1,30.25,NW,314,0.0,2.0,57,0.00,,,0.00,631,Wunderground v.1.15,2013-10-15 18:38:00,
2013-10-15 12:44:00,43.7,29.9,30.24,NW,314,0.0,2.0,58,0.00,,,0.00,673,Wunderground v.1.15,2013-10-15 18:44:00,
2013-10-15 12:49:00,44.2,29.9,30.24,NW,314,1.0,2.0,57,0.00,,,0.00,622,Wunderground v.1.15,2013-10-15 18:49:00,
2013-10-15 12:55:00,45.0,30.2,30.24,NW,314,1.0,2.0,56,0.00,,,0.00,543,Wunderground v.1.15,2013-10-15 18:55:00,
2013-10-15 13:00:00,45.2,29.1,30.23,NW,314,0.0,0.0,53,0.00,,,0.00,649,Wunderground v.1.15,2013-10-15 19:00:00,
2013-10-15 13:06:00,44.4,28.3,30.22,NW,314,1.0,1.0,53,0.00,,,0.00,596,Wunderground v.1.15,2013-10-15 19:06:00,
2013-10-15 13:12:00,44.1,28.5,30.22,NW,314,1.0,1.0,54,0.00,,,0.00,663,Wunderground v.1.15,2013-10-15 19:12:00,
2013-10-15 13:17:00,42.8,28.2,30.22,NW,314,1.0,1.0,56,0.00,,,0.00,649,Wunderground v.1.15,2013-10-15 19:17:00,
2013-10-15 13:22:00,43.2,28.1,30.22,NW,314,0.0,1.0,55,0.00,,,0.00,652,Wunderground v.1.15,2013-10-15 19:22:00,
2013-10-15 13:27:00,44.0,28.9,30.21,NW,314,0.0,1.0,55,0.00,,,0.00,647,Wunderground v.1.15,2013-10-15 19:27:00,
2013-10-15 13:32:00,44.1,28.0,30.21,NW,314,0.0,2.0,53,0.00,,,0.00,647,Wunderground v.1.15,2013-10-15 19:32:00,
2013-10-15 13:38:00,44.4,28.8,30.20,NW,314,0.0,2.0,54,0.00,,,0.00,642,Wunderground v.1.15,2013-10-15 19:38:00,
2013-10-15 13:43:00,45.0,29.3,30.20,NW,314,0.0,0.0,54,0.00,,,0.00,638,Wunderground v.1.15,2013-10-15 19:43:00,
2013-10-15 13:49:00,45.6,30.3,30.20,NW,314,1.0,1.0,55,0.00,,,0.00,633,Wunderground v.1.15,2013-10-15 19:49:00,
2013-10-15 13:55:00,45.9,30.6,30.20,NW,314,1.0,2.0,55,0.00,,,0.00,626,Wunderground v.1.15,2013-10-15 19:55:00,
2013-10-15 14:00:00,46.4,31.1,30.20,NW,314,0.0,0.0,55,0.00,,,0.00,622,Wunderground v.1.15,2013-10-15 20:00:00,
2013-10-15 14:06:00,46.9,30.6,30.19,NW,314,0.0,0.0,53,0.00,,,0.00,612,Wunderground v.1.15,2013-10-15 20:06:00,
2013-10-15 14:11:00,47.7,32.3,30.19,NW,314,0.0,2.0,55,0.00,,,0.00,605,Wunderground v.1.15,2013-10-15 20:11:00,
2013-10-15 14:16:00,48.5,32.6,30.18,NW,314,1.0,2.0,54,0.00,,,0.00,598,Wunderground v.1.15,2013-10-15 20:16:00,
2013-10-15 14:22:00,49.0,31.2,30.18,NW,314,1.0,1.0,50,0.00,,,0.00,592,Wunderground v.1.15,2013-10-15 20:22:00,
2013-10-15 14:27:00,49.0,29.6,30.17,NW,314,1.0,1.0,47,0.00,,,0.00,580,Wunderground v.1.15,2013-10-15 20:27:00,
2013-10-15 14:33:00,48.7,29.9,30.17,NW,314,0.0,0.0,48,0.00,,,0.00,573,Wunderground v.1.15,2013-10-15 20:33:00,
2013-10-15 14:38:00,46.3,30.1,30.17,NW,314,0.0,1.0,53,0.00,,,0.00,564,Wunderground v.1.15,2013-10-15 20:38:00,
2013-10-15 14:44:00,44.9,30.1,30.17,NW,314,0.0,1.0,56,0.00,,,0.00,554,Wunderground v.1.15,2013-10-15 20:44:00,
2013-10-15 14:49:00,45.2,30.4,30.17,NW,314,0.0,1.0,56,0.00,,,0.00,547,Wunderground v.1.15,2013-10-15 20:49:00,
2013-10-15 14:55:00,44.1,29.4,30.16,NW,314,0.0,1.0,56,0.00,,,0.00,536,Wunderground v.1.15,2013-10-15 20:55:00,
2013-10-15 15:00:00,44.7,30.4,30.16,NW,314,0.0,0.0,57,0.00,,,0.00,524,Wunderground v.1.15,2013-10-15 21:00:00,
2013-10-15 15:06:00,45.9,30.2,30.15,NW,314,0.0,1.0,54,0.00,,,0.00,510,Wunderground v.1.15,2013-10-15 21:06:00,
2013-10-15 15:11:00,46.8,32.4,30.15,NW,314,0.0,0.0,57,0.00,,,0.00,501,Wunderground v.1.15,2013-10-15 21:11:00,
2013-10-15 15:16:00,47.7,32.3,30.15,NW,314,0.0,1.0,55,0.00,,,0.00,490,Wunderground v.1.15,2013-10-15 21:16:00,
2013-10-15 15:22:00,47.4,31.6,30.15,NW,314,0.0,0.0,54,0.00,,,0.00,476,Wunderground v.1.15,2013-10-15 21:22:00,
2013-10-15 15:27:00,47.2,31.4,30.14,NW,314,0.0,0.0,54,0.00,,,0.00,468,Wunderground v.1.15,2013-10-15 21:27:00,
2013-10-15 15:33:00,47.3,30.1,30.14,NW,314,0.0,0.0,51,0.00,,,0.00,452,Wunderground v.1.15,2013-10-15 21:33:00,
2013-10-15 15:39:00,47.1,30.4,30.14,NW,314,0.0,0.0,52,0.00,,,0.00,439,Wunderground v.1.15,2013-10-15 21:39:00,
2013-10-15 15:44:00,47.3,29.6,30.14,NW,314,0.0,1.0,50,0.00,,,0.00,424,Wunderground v.1.15,2013-10-15 21:44:00,
2013-10-15 15:49:00,47.6,31.3,30.14,NW,314,0.0,1.0,53,0.00,,,0.00,410,Wunderground v.1.15,2013-10-15 21:49:00,
2013-10-15 15:55:00,48.0,29.2,30.14,NW,314,0.0,0.0,48,0.00,,,0.00,397,Wunderground v.1.15,2013-10-15 21:55:00,
2013-10-15 16:00:00,48.0,30.2,30.14,NW,314,0.0,0.0,50,0.00,,,0.00,383,Wunderground v.1.15,2013-10-15 22:00:00,
2013-10-15 16:06:00,47.8,29.0,30.13,NW,314,0.0,0.0,48,0.00,,,0.00,367,Wunderground v.1.15,2013-10-15 22:06:00,
2013-10-15 16:11:00,47.6,29.9,30.13,NW,314,0.0,0.0,50,0.00,,,0.00,352,Wunderground v.1.15,2013-10-15 22:11:00,
2013-10-15 16:16:00,47.9,30.1,30.13,NW,314,0.0,0.0,50,0.00,,,0.00,338,Wunderground v.1.15,2013-10-15 22:16:00,
2013-10-15 16:21:00,48.1,30.3,30.13,NW,314,0.0,0.0,50,0.00,,,0.00,327,Wunderground v.1.15,2013-10-15 22:21:00,
2013-10-15 16:27:00,48.1,32.7,30.13,NW,314,0.0,0.0,55,0.00,,,0.00,309,Wunderground v.1.15,2013-10-15 22:27:00,
2013-10-15 16:32:00,48.5,32.1,30.13,NW,314,0.0,0.0,53,0.00,,,0.00,297,Wunderground v.1.15,2013-10-15 22:32:00,
2013-10-15 16:38:00,48.8,33.3,30.13,NW,314,0.0,0.0,55,0.00,,,0.00,279,Wunderground v.1.15,2013-10-15 22:38:00,
2013-10-15 16:43:00,49.1,34.1,30.13,NW,314,0.0,0.0,56,0.00,,,0.00,265,Wunderground v.1.15,2013-10-15 22:43:00,
2013-10-15 16:48:00,49.0,34.0,30.13,NW,314,0.0,0.0,56,0.00,,,0.00,251,Wunderground v.1.15,2013-10-15 22:48:00,
2013-10-15 16:54:00,47.3,32.4,30.13,NW,314,0.0,1.0,56,0.00,,,0.00,232,Wunderground v.1.15,2013-10-15 22:54:00,
2013-10-15 16:59:00,47.3,33.3,30.13,NW,314,0.0,1.0,58,0.00,,,0.00,218,Wunderground v.1.15,2013-10-15 22:59:00,
2013-10-15 17:04:00,45.7,30.4,30.12,NW,314,0.0,1.0,55,0.00,,,0.00,135,Wunderground v.1.15,2013-10-15 23:04:00,
2013-10-15 17:10:00,43.4,30.0,30.12,NW,314,0.0,1.0,59,0.00,,,0.00,26,Wunderground v.1.15,2013-10-15 23:10:00,
2013-10-15 17:15:00,39.5,28.3,30.11,NW,314,1.0,2.0,64,0.00,,,0.00,26,Wunderground v.1.15,2013-10-15 23:15:00,
2013-10-15 17:21:00,37.4,28.5,30.12,NW,314,2.0,3.0,70,0.00,,,0.00,25,Wunderground v.1.15,2013-10-15 23:21:00,
2013-10-15 17:26:00,36.8,29.3,30.11,NW,314,3.0,3.0,74,0.00,,,0.00,23,Wunderground v.1.15,2013-10-15 23:26:00,
2013-10-15 17:31:00,36.7,29.8,30.11,NW,314,3.0,3.0,76,0.00,,,0.00,23,Wunderground v.1.15,2013-10-15 23:31:00,
2013-10-15 17:37:00,36.6,30.1,30.11,NW,314,3.0,3.0,77,0.00,,,0.00,21,Wunderground v.1.15,2013-10-15 23:37:00,
2013-10-15 17:42:00,36.4,30.2,30.11,NW,314,2.0,2.0,78,0.00,,,0.00,19,Wunderground v.1.15,2013-10-15 23:42:00,
2013-10-15 17:47:00,36.2,30.0,30.11,NW,314,2.0,2.0,78,0.00,,,0.00,19,Wunderground v.1.15,2013-10-15 23:47:00,
2013-10-15 17:53:00,35.9,30.0,30.10,NW,314,2.0,3.0,79,0.00,,,0.00,18,Wunderground v.1.15,2013-10-15 23:53:00,
2013-10-15 17:58:00,35.7,29.8,30.10,NW,314,1.0,3.0,79,0.00,,,0.00,16,Wunderground v.1.15,2013-10-15 23:58:00,
2013-10-15 18:03:00,35.5,29.9,30.10,NW,314,2.0,3.0,80,0.00,,,0.00,14,Wunderground v.1.15,2013-10-16 00:03:00,
2013-10-15 18:09:00,35.2,30.0,30.10,NW,314,2.0,3.0,81,0.00,,,0.00,14,Wunderground v.1.15,2013-10-16 00:09:00,
2013-10-15 18:14:00,35.1,29.9,30.10,NW,314,2.0,2.0,81,0.00,,,0.00,12,Wunderground v.1.15,2013-10-16 00:14:00,
2013-10-15 18:19:00,34.9,29.7,30.10,NW,314,1.0,2.0,81,0.00,,,0.00,11,Wunderground v.1.15,2013-10-16 00:19:00,
2013-10-15 18:25:00,34.8,29.6,30.10,NW,314,1.0,2.0,81,0.00,,,0.00,7,Wunderground v.1.15,2013-10-16 00:25:00,
2013-10-15 18:30:00,34.7,29.5,30.10,NW,314,1.0,1.0,81,0.00,,,0.00,7,Wunderground v.1.15,2013-10-16 00:30:00,
2013-10-15 18:35:00,34.5,29.3,30.10,NW,314,2.0,3.0,81,0.00,,,0.00,5,Wunderground v.1.15,2013-10-16 00:35:00,
2013-10-15 18:41:00,34.4,29.5,30.10,NW,314,2.0,2.0,82,0.00,,,0.00,0,Wunderground v.1.15,2013-10-16 00:41:00,
2013-10-15 18:46:00,34.3,29.4,30.10,NW,314,1.0,3.0,82,0.00,,,0.00,0,Wunderground v.1.15,2013-10-16 00:46:00,
2013-10-15 18:51:00,34.2,29.3,30.10,NW,314,2.0,2.0,82,0.00,,,0.00,0,Wunderground v.1.15,2013-10-16 00:51:00,
2013-10-15 18:57:00,34.1,29.5,30.10,NW,314,2.0,2.0,83,0.00,,,0.00,0,Wunderground v.1.15,2013-10-16 00:57:00,
2013-10-15 19:02:00,34.0,29.4,30.09,NW,314,2.0,4.0,83,0.00,,,0.00,0,Wunderground v.1.15,2013-10-16 01:02:00,
2013-10-15 19:08:00,33.8,29.2,30.09,NW,314,2.0,4.0,83,0.00,,,0.00,0,Wunderground v.1.15,2013-10-16 01:08:00,
2013-10-15 19:13:00,33.7,29.1,30.09,NW,314,2.0,2.0,83,0.00,,,0.00,0,Wunderground v.1.15,2013-10-16 01:13:00,
2013-10-15 19:18:00,33.6,29.0,30.09,NW,314,2.0,4.0,83,0.00,,,0.00,0,Wunderground v.1.15,2013-10-16 01:18:00,
2013-10-15 19:23:00,33.5,28.9,30.09,NW,314,2.0,3.0,83,0.00,,,0.00,0,Wunderground v.1.15,2013-10-16 01:23:00,
2013-10-15 19:28:00,33.5,28.9,30.09,NW,314,1.0,3.0,83,0.00,,,0.00,0,Wunderground v.1.15,2013-10-16 01:28:00,
2013-10-15 19:33:00,33.5,28.9,30.09,NW,314,1.0,2.0,83,0.00,,,0.00,0,Wunderground v.1.15,2013-10-16 01:33:00,
2013-10-15 19:38:00,33.4,28.8,30.09,NW,314,1.0,2.0,83,0.00,,,0.00,0,Wunderground v.1.15,2013-10-16 01:38:00,
2013-10-15 19:44:00,33.4,28.5,30.08,NW,314,1.0,1.0,82,0.00,,,0.00,0,Wunderground v.1.15,2013-10-16 01:44:00,
2013-10-15 19:49:00,33.3,28.7,30.08,NW,314,0.0,1.0,83,0.00,,,0.00,0,Wunderground v.1.15,2013-10-16 01:49:00,
2013-10-15 19:55:00,33.2,28.6,30.08,NW,314,0.0,0.0,83,0.00,,,0.00,0,Wunderground v.1.15,2013-10-16 01:55:00,
2013-10-15 20:00:00,33.1,28.5,30.08,NW,314,0.0,2.0,83,0.00,,,0.00,0,Wunderground v.1.15,2013-10-16 02:00:00,
2013-10-15 20:06:00,32.9,28.3,30.09,NW,314,1.0,2.0,83,0.00,,,0.00,0,Wunderground v.1.15,2013-10-16 02:06:00,
2013-10-15 20:11:00,32.7,28.1,30.09,NW,314,1.0,1.0,83,0.00,,,0.00,0,Wunderground v.1.15,2013-10-16 02:11:00,
2013-10-15 20:16:00,32.6,28.0,30.09,NW,314,0.0,2.0,83,0.00,,,0.00,0,Wunderground v.1.15,2013-10-16 02:16:00,
2013-10-15 20:21:00,32.5,27.9,30.08,NW,314,0.0,0.0,83,0.00,,,0.00,0,Wunderground v.1.15,2013-10-16 02:21:00,
2013-10-15 20:27:00,32.3,28.0,30.08,NW,314,0.0,1.0,84,0.00,,,0.00,0,Wunderground v.1.15,2013-10-16 02:27:00,
2013-10-15 20:32:00,32.1,27.8,30.08,NW,314,0.0,1.0,84,0.00,,,0.00,0,Wunderground v.1.15,2013-10-16 02:32:00,
2013-10-15 20:37:00,32.0,27.7,30.08,NW,314,0.0,1.0,84,0.00,,,0.00,0,Wunderground v.1.15,2013-10-16 02:37:00,
2013-10-15 20:43:00,31.9,27.9,30.08,NW,314,0.0,0.0,85,0.00,,,0.00,0,Wunderground v.1.15,2013-10-16 02:43:00,
2013-10-15 20:49:00,31.8,27.8,30.08,West,266,0.0,5.0,85,0.00,,,0.00,0,Wunderground v.1.15,2013-10-16 02:49:00,
2013-10-15 20:55:00,32.4,28.1,30.07,SW,224,1.0,3.0,84,0.00,,,0.00,0,Wunderground v.1.15,2013-10-16 02:55:00,
2013-10-15 21:00:00,32.8,27.9,30.07,SW,222,1.0,3.0,82,0.00,,,0.00,0,Wunderground v.1.15,2013-10-16 03:00:00,
2013-10-15 21:06:00,34.2,27.4,30.06,SSW,199,2.0,6.0,76,0.00,,,0.00,0,Wunderground v.1.15,2013-10-16 03:06:00,
2013-10-15 21:11:00,35.2,26.4,30.06,SSW,195,3.0,9.0,70,0.00,,,0.00,0,Wunderground v.1.15,2013-10-16 03:11:00,
2013-10-15 21:16:00,37.1,25.3,30.06,WSW,241,5.0,9.0,62,0.00,,,0.00,0,Wunderground v.1.15,2013-10-16 03:16:00,
2013-10-15 21:22:00,37.9,24.8,30.06,SSE,161,6.0,7.0,59,0.00,,,0.00,0,Wunderground v.1.15,2013-10-16 03:22:00,
2013-10-15 21:27:00,38.4,24.5,30.05,South,175,6.0,10.0,57,0.00,,,0.00,0,Wunderground v.1.15,2013-10-16 03:27:00,
2013-10-15 21:33:00,38.7,24.8,30.05,South,180,7.0,8.0,57,0.00,,,0.00,0,Wunderground v.1.15,2013-10-16 03:33:00,
2013-10-15 21:39:00,38.7,24.3,30.05,South,175,6.0,8.0,56,0.00,,,0.00,0,Wunderground v.1.15,2013-10-16 03:39:00,
2013-10-15 21:44:00,38.8,24.0,30.05,SE,146,6.0,7.0,55,0.00,,,0.00,0,Wunderground v.1.15,2013-10-16 03:44:00,
2013-10-15 21:49:00,39.1,23.4,30.04,South,180,6.0,9.0,53,0.00,,,0.00,0,Wunderground v.1.15,2013-10-16 03:49:00,
2013-10-15 21:55:00,39.4,23.2,30.04,SSE,157,8.0,11.0,52,0.00,,,0.00,0,Wunderground v.1.15,2013-10-16 03:55:00,
2013-10-15 22:01:00,39.9,23.2,30.04,SSE,150,8.0,8.0,51,0.00,,,0.00,0,Wunderground v.1.15,2013-10-16 04:01:00,
2013-10-15 22:03:00,39.8,23.6,30.04,SSE,162,8.0,8.0,52,0.00,,,0.00,0,Wunderground v.1.15,2013-10-16 04:03:00,
2013-10-15 22:04:00,39.7,23.0,30.04,SE,135,8.0,8.0,51,0.00,,,0.00,0,Wunderground v.1.15,2013-10-16 04:04:00,
2013-10-15 22:06:00,39.7,23.0,30.04,SSW,202,7.0,12.0,51,0.00,,,0.00,0,Wunderground v.1.15,2013-10-16 04:06:00,
2013-10-15 22:10:00,39.7,22.6,30.04,SW,222,7.0,12.0,50,0.00,,,0.00,0,Wunderground v.1.15,2013-10-16 04:10:00,
2013-10-15 22:15:00,39.9,22.3,30.03,South,175,7.0,13.0,49,0.00,,,0.00,0,Wunderground v.1.15,2013-10-16 04:15:00,
2013-10-15 22:19:00,39.9,22.7,30.03,South,189,8.0,13.0,50,0.00,,,0.00,0,Wunderground v.1.15,2013-10-16 04:19:00,
2013-10-15 22:25:00,40.0,22.4,30.03,SE,138,7.0,9.0,49,0.00,,,0.00,0,Wunderground v.1.15,2013-10-16 04:25:00,
2013-10-15 22:30:00,39.9,22.3,30.03,SSW,208,6.0,8.0,49,0.00,,,0.00,0,Wunderground v.1.15,2013-10-16 04:30:00,
2013-10-15 22:36:00,40.0,22.4,30.03,SSW,193,5.0,9.0,49,0.00,,,0.00,0,Wunderground v.1.15,2013-10-16 04:36:00,
2013-10-15 22:42:00,39.8,22.2,30.03,SW,214,5.0,10.0,49,0.00,,,0.00,0,Wunderground v.1.15,2013-10-16 04:42:00,
2013-10-15 22:47:00,39.4,21.8,30.03,SW,232,5.0,10.0,49,0.00,,,0.00,0,Wunderground v.1.15,2013-10-16 04:47:00,
2013-10-15 22:52:00,39.3,21.7,30.03,SSW,202,4.0,6.0,49,0.00,,,0.00,0,Wunderground v.1.15,2013-10-16 04:52:00,
2013-10-15 22:57:00,39.3,21.7,30.03,SW,219,4.0,8.0,49,0.00,,,0.00,0,Wunderground v.1.15,2013-10-16 04:57:00,
2013-10-15 23:02:00,39.7,21.6,30.03,South,189,5.0,11.0,48,0.00,,,0.00,0,Wunderground v.1.15,2013-10-16 05:02:00,
2013-10-15 23:08:00,39.7,21.6,30.02,SSW,213,6.0,11.0,48,0.00,,,0.00,0,Wunderground v.1.15,2013-10-16 05:08:00,
2013-10-15 23:13:00,40.0,21.4,30.03,SSW,210,7.0,8.0,47,0.00,,,0.00,0,Wunderground v.1.15,2013-10-16 05:13:00,
2013-10-15 23:18:00,40.0,21.4,30.03,SW,218,5.0,8.0,47,0.00,,,0.00,0,Wunderground v.1.15,2013-10-16 05:18:00,
2013-10-15 23:23:00,39.9,21.3,30.02,East,93,3.0,5.0,47,0.00,,,0.00,0,Wunderground v.1.15,2013-10-16 05:23:00,
2013-10-15 23:29:00,39.8,20.7,30.03,WSW,237,4.0,8.0,46,0.00,,,0.00,0,Wunderground v.1.15,2013-10-16 05:29:00,
2013-10-15 23:34:00,39.6,21.0,30.03,SSW,211,5.0,9.0,47,0.00,,,0.00,0,Wunderground v.1.15,2013-10-16 05:34:00,
2013-10-15 23:40:00,39.5,20.9,30.03,SSE,159,3.0,3.0,47,0.00,,,0.00,0,Wunderground v.1.15,2013-10-16 05:40:00,
2013-10-15 23:45:00,39.0,21.4,30.03,SSE,159,1.0,3.0,49,0.00,,,0.00,0,Wunderground v.1.15,2013-10-16 05:45:00,
2013-10-15 23:51:00,37.9,19.9,30.03,SW,214,3.0,5.0,48,0.00,,,0.00,0,Wunderground v.1.15,2013-10-16 05:51:00,
2013-10-15 23:57:00,37.3,19.9,30.02,WSW,251,3.0,5.0,49,0.00,,,0.00,0,Wunderground v.1.15,2013-10-16 05:57:00,